Location: Glencliff
(36.1226°N, 86.7183°W)
Time: 18:40:41
(UTC+00:00)

Cosmos 1680 Rocket - Pass Details

Date: 25 August 2019
Orbit: 760 x 780 km, 74.1° (Epoch: 14 October)

Event Time Altitude Azimuth Distance (km) Brightness Sun altitude
Rises 01:15:47 0° 351° (N) 3,238 7.2 -10.4°
Reaches altitude 10° 01:18:22 10° 0° (N) 2,305 6.3 -10.9°
Maximum altitude 01:23:09 35° 66° (ENE) 1,210 4.2 -11.8°
Enters shadow 01:26:35 17° 124° (SE) 1,859 4.9 -12.4°
